カタログに戻る

SL-8 DEB

運用中PO
NORAD 29286·DEBRIS·🇷🇺 Russia

打ち上げ Dec 17, 1981 から Plesetsk Cosmodrome

Loading…

次のパス (今後24時間)

TLE

最新Source: Space-Track

元期: Sep 13, 2026, 03:58 UTC

1 29286U 81120Q   26256.16530477 -.00000082  00000-0 -10498-2 0  9999
2 29286  82.9758  39.8457 0001257 291.7614 188.1534 12.06032410598213

AllMySatでSL-8 DEBをリアルタイム追跡

Download on the App Store